FW6249 Weather Reports


time (UTC)temp
C
wind
direction
speed
KPH
gust
KPH
rain 1hr
cm
rain 24hr
cm
rain mn
cm
humidity
%
barometer
mb
20260507224557 11 0 0.0 0.0 0.00 1.17 1.17 93 1010.2
20260507223045 11 0 0.0 0.0 0.00 1.17 1.17 93 1010.3
20260507221550 11 0 0.0 0.0 0.00 1.17 1.17 94 1010.4
20260507220048 11 0 0.0 0.0 0.00 1.17 1.17 94 1010.2
20260507214553 11 0 0.0 0.0 0.00 1.17 1.17 94 1010.0
20260507213104 11 0 0.0 0.0 0.00 1.17 1.17 93 1009.6
20260507211546 11 0 0.0 1.6 0.00 1.17 1.17 93 1010.1
20260507210054 11 0 0.0 0.0 0.00 1.17 1.17 92 1010.5
20260507204556 11 0 0.0 0.0 0.00 1.17 1.17 90 1010.3
20260507203050 12 0 0.0 0.0 0.00 1.17 1.17 90 1010.3
20260507201547 12 0 0.0 0.0 0.00 1.17 1.17 89 1010.7
20260507200046 12 0 0.0 0.0 0.00 1.17 1.17 89 1010.3
20260507194548 12 0 0.0 0.0 0.00 1.17 1.17 88 1010.4
20260507193052 12 0 0.0 1.6 0.00 1.17 1.17 86 1010.6
20260507191551 12 0 0.0 1.6 0.00 1.17 1.17 86 1010.6
20260507190050 12 0 0.0 1.6 0.00 1.17 1.17 87 1010.7
20260507184549 12 0 0.0 3.2 0.00 1.17 1.17 88 1010.7
20260507183056 12 36 0.0 4.8 0.00 1.17 1.17 87 1010.7
20260507181550 11 0 0.0 1.6 0.00 1.17 1.17 88 1010.9
20260507180052 11 338 0.0 1.6 0.00 1.17 1.17 88 1010.9
20260507174545 11 0 0.0 3.2 0.00 1.17 1.17 90 1011.0
20260507173054 11 12 0.0 3.2 0.00 1.17 1.17 91 1011.1
20260507171554 11 0 0.0 4.8 0.00 1.17 1.17 87 1011.3
20260507170051 11 0 0.0 8.0 0.00 1.17 1.17 90 1011.5
20260507164552 12 0 0.0 1.6 0.00 1.17 1.17 92 1011.9
20260507163049 12 0 0.0 3.2 0.00 1.17 1.17 92 1011.7
20260507161549 12 0 0.0 1.6 0.00 1.17 1.17 94 1011.9
20260507160100 12 0 0.0 1.6 0.00 1.17 1.17 92 1011.8
20260507154549 12 0 0.0 1.6 0.00 1.17 1.17 91 1011.6
20260507153051 12 0 0.0 3.2 0.03 1.17 1.17 92 1011.5
20260507151550 12 0 0.0 1.6 0.03 1.17 1.17 93 1011.8
20260507150044 12 0 0.0 0.0 0.03 1.17 1.17 95 1011.8
20260507144551 12 0 0.0 0.0 0.03 1.17 1.17 93 1011.5
20260507143049 12 44 0.0 1.6 0.00 1.14 1.14 93 1011.4
20260507141555 12 0 0.0 1.6 0.00 1.14 1.14 92 1011.7
20260507140106 12 0 0.0 3.2 0.00 1.14 1.14 92 1011.7
20260507134545 12 0 0.0 1.6 0.00 1.14 1.14 93 1011.6
20260507133049 13 360 0.0 3.2 0.00 1.14 1.14 94 1011.4
20260507131601 13 0 0.0 1.6 0.00 1.14 1.14 95 1011.3
20260507130105 13 0 0.0 1.6 0.00 1.14 1.14 96 1011.1
20260507124552 13 0 0.0 0.0 0.00 1.14 1.14 96 1011.6
20260507123057 13 0 0.0 1.6 0.00 1.14 1.14 95 1011.4
20260507121554 13 0 0.0 1.6 0.00 1.14 1.14 95 1011.1
20260507120053 13 0 0.0 0.0 0.03 1.14 1.14 95 1011.2
20260507114548 13 0 0.0 1.6 0.03 1.14 1.14 95 1011.5
20260507113047 13 0 0.0 3.2 0.03 1.14 1.14 95 1011.4
20260507111547 13 0 0.0 1.6 0.05 1.14 1.14 95 1011.1
20260507110048 13 0 0.0 4.8 0.36 1.12 1.12 94 1011.1
20260507104548 13 0 0.0 4.8 0.81 1.12 1.12 94 1010.7
20260507103044 13 0 0.0 3.2 1.12 1.12 1.12 93 1010.6
20260507101549 14 0 0.0 3.2 1.09 1.09 1.09 92 1010.3
20260507100057 15 35 0.0 4.8 0.76 0.76 0.76 91 1010.3
20260507094553 16 0 0.0 3.2 0.28 0.28 0.28 90 1010.1
20260507093049 17 79 1.6 8.0 0.00 0.00 0.00 89 1009.8
20260507091548 18 0 1.6 3.2 0.00 0.00 0.00 93 1009.6
20260507090044 18 0 0.0 3.2 0.00 0.00 0.00 92 1009.5
20260507084553 19 0 0.0 0.0 0.00 0.00 0.00 92 1009.5
20260507083053 19 0 0.0 1.6 0.00 0.00 0.00 91 1009.2
20260507081541 19 0 0.0 3.2 0.00 0.00 0.00 91 1008.7
20260507080114 19 0 0.0 1.6 0.00 0.00 0.00 90 1008.6
20260507074546 20 220 1.6 3.2 0.00 0.00 0.00 89 1008.5
20260507073053 20 220 0.0 1.6 0.00 0.00 0.00 88 1008.9
20260507071601 20 264 0.0 4.8 0.00 0.00 0.00 88 1009.2
20260507070048 20 264 0.0 4.8 0.00 0.00 0.00 88 1009.3
20260507064552 20 266 1.6 9.7 0.00 0.00 0.00 88 1009.3
20260507063051 20 252 1.6 6.4 0.00 0.00 0.00 88 1009.1
20260507061544 20 255 1.6 6.4 0.00 0.00 0.00 87 1009.2
20260507060046 20 269 0.0 3.2 0.00 0.00 0.00 86 1009.1
20260507054555 20 230 1.6 3.2 0.00 0.00 0.00 86 1009.2
20260507053049 20 234 1.6 6.4 0.00 0.00 0.00 86 1009.5
20260507051549 20 269 1.6 6.4 0.00 0.00 0.00 85 1009.8
20260507050053 20 243 1.6 4.8 0.00 0.00 0.00 84 1010.2
20260507044545 21 254 1.6 4.8 0.00 0.00 0.00 82 1010.5
20260507043049 20 261 1.6 4.8 0.00 0.00 0.00 82 1010.4
20260507041544 20 241 0.0 3.2 0.00 0.00 0.00 83 1010.4
20260507034556 20 248 0.0 3.2 0.00 0.00 0.00 84 1010.3
20260507033046 20 236 0.0 1.6 0.00 0.00 0.00 85 1010.0
20260507031543 19 0 0.0 1.6 0.00 0.00 0.00 86 1010.1
20260507030043 19 0 0.0 0.0 0.00 0.00 0.00 86 1009.9
20260507024557 20 0 0.0 1.6 0.00 0.00 0.00 86 1010.0
20260507023042 19 0 0.0 3.2 0.00 0.00 0.00 86 1010.1
20260507021549 19 0 0.0 3.2 0.00 0.00 0.00 88 1010.1
20260507020100 18 236 0.0 1.6 0.00 0.00 0.00 88 1010.7
20260507014600 18 0 0.0 0.0 0.00 0.00 0.00 88 1010.4
20260507013044 19 0 0.0 0.0 0.00 0.00 0.00 87 1010.0
20260507011559 20 0 0.0 0.0 0.00 0.00 0.00 85 1010.1
20260507010050 20 0 0.0 1.6 0.00 0.00 0.00 83 1010.1
20260507004552 20 0 0.0 1.6 0.00 0.00 0.00 81 1010.0
20260507003052 21 0 0.0 3.2 0.00 0.00 0.00 80 1010.1
20260507001606 21 259 0.0 3.2 0.00 0.00 0.00 80 1010.3
20260507000058 21 248 0.0 3.2 0.00 0.00 0.00 79 1010.3
20260506234602 21 261 0.0 3.2 0.00 0.00 0.00 79 1009.9
20260506233048 21 0 0.0 4.8 0.00 0.00 0.00 80 1009.8
20260506231547 21 266 0.0 3.2 0.00 0.00 0.00 80 1009.9
20260506230053 21 0 0.0 1.6 0.00 0.00 0.00 79 1009.8